Location: Bas-Clignon
(44.2000°N, 6.6333°E)
Time: 07:39:56
(UTC+00:00)

MOS 1-B - Pass Details

Date: 03 February 2023
Orbit: 904 x 913 km, 99.4° (Epoch: 26 March)

Event Time Altitude Azimuth Distance (km) Brightness Sun altitude
Rises 18:12:27 0° 157° (SSE) 3,526 7.3 -15.8°
Reaches altitude 10° 18:14:51 10° 156° (SSE) 2,589 6.6 -16.2°
Maximum altitude 18:20:37 74° 72° (ENE) 949 4.3 -17.3°
Drops below altitude 10° 18:26:25 10° 349° (NNW) 2,612 6.8 -18.3°
Sets 18:28:51 0° 347° (NNW) 3,558 7.5 -18.7°
